Jonesboro, AR

10:15 AM CDT on August 21, 2017 (GMT -0500)
Jonesboro Municipal

Weather History for KJBR - November, 2012

Change the Weather History Date:

Tuesday, November 6, 2012

  Actual Average Record
Temperature  
Mean Temperature 47 °F 54 °F  
Max Temperature 53 °F 64 °F 80 °F (1914)
Min Temperature 41 °F 44 °F 25 °F (1967)
Degree Days  
Heating Degree Days 18 11  
Month to date heating degree days 76 63  
Since 1 July heating degree days 281 250  
Cooling Degree Days 0 0  
Month to date cooling degree days 0 1  
Year to date cooling degree days 2343 1825  
Moisture  
Dew Point 42 °F    
Average Humidity 79    
Maximum Humidity 92    
Minimum Humidity 66    
Precipitation  
Precipitation T in 0.13 in 2.14 in (1911)
Month to date precipitation 0.10 0.75  
Year to date precipitation 27.81 39.18  
Snow  
Snow 0.00 in 0.00 in T in (1951)
Month to date snowfall 0.0 0.0  
Since 1 July snowfall 0.0 0.0  
Since 1 September snowfall 0.0 0.0  
Snow Depth 0.00 in    
Sea Level Pressure  
Sea Level Pressure 30.04 in    
Wind  
Wind Speed 4 mph (NW)    
Max Wind Speed 13 mph    
Max Gust Speed 17 mph    
Visibility 8 miles    
Events Rain    
T = Trace of Precipitation, MM = Missing Value Source: NWS Daily Summary

Daily Weather History Graph

Daily Weather History Graph

Search for Another Location

Airport or City:

Trip Planner

Search our weather history database for the weather conditions in past years. The results will help you decide how hot, cold, wet, or windy it might be!

Date:

Astronomy

Nov. 06, 2012 Rise Set
Actual Time 6:30 AM CST 5:01 PM CST
Civil Twilight 6:03 AM CST 5:28 PM CST
Nautical Twilight 5:33 AM CST 5:59 PM CST
Astronomical Twilight 5:02 AM CST 6:29 PM CST
Moon 11:38 PM CST (11/6) 12:24 PM CST (11/6)
Length of Visible Light 11h 25m
Length of Day
10h 31m
Waning Gibbous, 53% of the Moon is Illuminated
Nov 6
Waning Gibbous
Nov 6
Last Quarter
Nov 13
New
Nov 20
First Quarter
Nov 28
Full

Hourly Weather History & Observations

Time (CST) Temp. Windchill Dew Point Humidity Pressure Visibility Wind Dir Wind Speed Gust Speed Precip Events Conditions
12:53 AM 46.0 °F 43.1 °F 43.0 °F 89% 30.04 in 7.0 mi NE 5.8 mph - N/A   Overcast
1:53 AM 46.0 °F 43.9 °F 43.0 °F 89% 30.05 in 6.0 mi NNE 4.6 mph - N/A   Overcast
2:18 AM 46.4 °F 45.2 °F 42.8 °F 87% 30.05 in 6.0 mi NNE 3.5 mph - N/A   Overcast
2:33 AM 46.4 °F 44.3 °F 42.8 °F 87% 30.05 in 7.0 mi NNE 4.6 mph - N/A   Overcast
2:53 AM 46.0 °F 43.1 °F 42.1 °F 86% 30.04 in 6.0 mi NE 5.8 mph - N/A   Overcast
3:13 AM 46.4 °F 42.9 °F 42.8 °F 87% 30.04 in 6.0 mi NE 6.9 mph - N/A   Overcast
3:45 AM 46.4 °F 44.3 °F 42.8 °F 87% 30.04 in 6.0 mi NNE 4.6 mph - N/A   Overcast
3:53 AM 46.0 °F 44.8 °F 42.1 °F 86% 30.04 in 6.0 mi NNE 3.5 mph - N/A   Overcast
4:53 AM 46.0 °F 43.9 °F 42.1 °F 86% 30.06 in 6.0 mi North 4.6 mph - N/A   Overcast
5:53 AM 46.0 °F 44.8 °F 42.1 °F 86% 30.06 in 6.0 mi North 3.5 mph - N/A   Overcast
6:53 AM 46.0 °F 44.8 °F 42.1 °F 86% 30.08 in 4.0 mi NNE 3.5 mph - N/A   Overcast
7:53 AM 46.0 °F 44.8 °F 42.1 °F 86% 30.07 in 4.0 mi ENE 3.5 mph - N/A   Overcast
8:53 AM 46.9 °F - 42.1 °F 83% 30.10 in 5.0 mi Calm Calm - N/A   Haze
9:53 AM 46.9 °F - 43.0 °F 86% 30.10 in 6.0 mi West 4.6 mph - N/A   Overcast
10:46 AM 48.2 °F - 42.8 °F 82% 30.09 in 8.0 mi WSW 3.5 mph - N/A   Overcast
10:53 AM 48.9 °F - 43.0 °F 80% 30.08 in 9.0 mi Calm Calm - N/A   Overcast
11:00 AM 50.0 °F - 44.6 °F 82% 30.07 in 9.0 mi South 3.5 mph - N/A   Mostly Cloudy
11:39 AM 51.8 °F - 42.8 °F 71% 30.06 in 10.0 mi WSW 4.6 mph - N/A   Mostly Cloudy
11:53 AM 51.1 °F - 42.1 °F 71% 30.05 in 10.0 mi Variable 3.5 mph - N/A   Overcast
12:53 PM 53.1 °F - 43.0 °F 69% 30.04 in 10.0 mi West 10.4 mph - N/A   Mostly Cloudy
1:53 PM 52.0 °F - 42.1 °F 69% 30.01 in 10.0 mi WSW 8.1 mph - N/A   Overcast
2:53 PM 52.0 °F - 43.0 °F 71% 30.00 in 10.0 mi WSW 5.8 mph - 0.00 in Rain Light Rain
3:15 PM 51.8 °F - 42.8 °F 71% 30.00 in 10.0 mi West 8.1 mph - 0.00 in   Overcast
3:46 PM 51.8 °F - 42.8 °F 71% 29.99 in 10.0 mi West 8.1 mph - 0.00 in   Overcast
3:53 PM 52.0 °F - 43.0 °F 71% 29.99 in 10.0 mi WSW 8.1 mph - 0.00 in   Mostly Cloudy
4:53 PM 51.1 °F - 43.0 °F 74% 29.99 in 10.0 mi West 8.1 mph - N/A   Clear
5:53 PM 48.0 °F - 42.1 °F 80% 29.99 in 10.0 mi SSW 3.5 mph - N/A   Partly Cloudy
6:53 PM 44.1 °F - 42.1 °F 93% 30.02 in 10.0 mi Calm Calm - N/A   Partly Cloudy
7:53 PM 43.0 °F - 39.9 °F 89% 30.02 in 9.0 mi Calm Calm - N/A   Clear
8:53 PM 42.1 °F - 39.9 °F 92% 30.01 in 9.0 mi Calm Calm - N/A   Clear
9:53 PM 44.1 °F 42.5 °F 41.0 °F 89% 30.03 in 8.0 mi NNE 3.5 mph - N/A   Mostly Cloudy
10:53 PM 44.1 °F - 39.9 °F 85% 30.01 in 10.0 mi Calm Calm - N/A   Clear
11:53 PM 42.1 °F 40.2 °F 39.9 °F 92% 30.01 in 9.0 mi West 3.5 mph - N/A   Clear